ONEWEB-0705, 61610

Orbit data source: Space-Track

ONEWEB-0705, 61610 is a payload satellite owned by Eut. One Web (UK) in LEO that was launched on Sun, 20 Oct 2024 UTC via an FALCON 9 launch vehicle from the Air Force Western Test Range (AFWTR). Payload-class satellites include a variety of spacecraft equipped with specific instruments for various scientific and technological missions. These include communications satellites like Starlink; space stations such as the ISS; scientific satellites like the Hubble; Earth observation satellites from companies like Planet Labs, Umbra, and HawkEye 360; GPS; miniature CubeSats for education and research; and military/defense satellites.

Loading next visibility...
Identifier
61610, 2024-188S
Orbit
LEO
Country
Flag of UKUK
Related business
Manufacturer
One Web
Mission
Operational Commercial Communications
Bus & Motor
ARROW, Unknown motor
Mass
148 kg wet, ~140 kg dry
Launch date (UTC)
2024-10-20 (11 months ago)
Launch vehicle
FALCON 9
Launch site
Air Force Western Test Range (AFWTR)
Object type
Payload
Rocket body
Debris
Shape & HBR
Trap Box + 2 Pan, 2.5 m
Radar Cross Section
2.032 m², Large (>1 m²)

Expand to show TLE details & history
Last TLE update: 16 hours ago

TLE from 16 hours ago
0 ONEWEB-0705
1 61610U 24188S   25260.01999209 -.00000655  00000-0 -19121-2 0  9995
2 61610  87.8745  90.7169 0002734 103.4605 256.6827 13.10372210 39684
Epoch: 2025-09-17T00:28Z
TLE epoch observation values (Epoch: 2025-09-17T00:28:47.316Z)
Latitude
-0.00004°
Longitude
87.31781°
Altitude
1,225.086 km
Speed
7.242 km/s
True Right ascension
06h 02m 52s
True Declination
0° 00' 00"
Sunlit
Object was in daylight at epoch
Visualization orbit readout
Latitude
Unknown
Longitude
Unknown
Altitude
Unknown
Speed
Unknown
Apparent Right ascension
Unknown
Apparent Declination
Unknown
Sunlit
N/A
Visualization observer readout
Local Sidereal Time
09:16:57
Azimuth
Unknown
Elevation
Unknown
Doppler factor
Unknown
Orbital elements
Apogee altitude
1,220.916 km
Perigee altitude
1,216.762 km
Semi-major axis
7,596.976 km
Eccentricity
0.00027
Inclination
87.8745°
RAAN
90.7169°
Arg. of periapsis
103.4605°
True anomaly
256.65222°
Mean anomaly
256.6827°
Eccentric anomaly
256.66746°
Mean motion
3.2778 °/min
Orbital period
109.83 mins
BSTAR
-0.0019121
Loading maneuver chart data...
Computing Atmospheric mass density...
Loading historical data...
Loading historical data...
Loading historical data...
Loading historical data...
Loading historical data...
Loading historical data...
Loading historical data...

Documentation

Showing up to 5 results
|